SCP
1 1 0 0 0 0 0 0 0 0 0 0 0 0 0 0 0 0 0 0 0 0 0 0 0 0 0 0 0 0 0 0 0 0 1 0 0 0
1 1 0 0 0 0 0 0 0 0 0 0 0 0 0 0 0 0 0 0 0 0 0 0 0 0 0 0 0 0 0 0 0 0 0 0 0 0
0 0 0 0 0 0 0 0 0 0 0 0 0 0 0 0 0 0 0 0 0 0 0 0 0 0 0 0 0 0 0 0 0 0 0 0 0 0
0 0 0 0 0 0 0 0 0 0 0 0 0 0 0 0 0 0 0 0 0 0 0 0 0 0 0 0 0 0 0 0 0 0 0 0 0 0
0 0 0 0 0 0 0 0 0 0 0 0 0 0 0 0 0 0 0 0 0 0 0 0 0 0 0 0 0 0 0 0 0 0 0 0 0 0
0 0 0 0 0 0 0 0 0 0 0 0 0 0 0 0 0 0 0 0 0 0 0 0 0 0 0 0 0 0 0 0 0 0 0 0 0 0
0 0 0 0 0 0 0 0 0 0 0 0 0 0 0 0 0 0 0 0 0 0 0 0 0 0 0 0 0 0 0 0 0 0 0 0 0 0
0 0 0 0 0 0 0 0 0 0 0 0 0 0 0 0 0 0 0 0 0 0 0 0 0 0 0 0 0 0 0 0 0 0 0 0 0 0
0 0 0 0 0 0 0 0 0 0 0 0 0 0 0 0 0 0 0 0 0 0 0 0 0 0 0 0 0 0 0 0 0 0 0 0 0 0
0 0 0 0 0 0 0 0 0 0 0 0 0 0 0 0 0 0 0 0 0 0 0 0 0 0 0 0 0 0 0 0 0 0 0 0 0 0
0 0 0 0 0 0 0 0 0 0 0 0 0 0 0 0 0 0 0 0 0 0 0 0 0 0 0 0 0 0 0 0 0 0 0 0 0 0
0 0 0 0 0 0 0 0 0 0 0 0 0 0 0 0 0 0 0 0 0 0 0 0 0 0 0 0 0 0 0 0 0 0 0 0 0 0
0 0 0 0 0 0 0 0 0 0 0 0 0 0 0 0 0 0 0 0 0 0 0 0 0 0 0 0 0 0 0 0 0 0 0 0 0 0
0 0 0 0 0 0 0 0 0 0 0 0 0 0 0 0 0 0 0 0 0 0 0 0 0 0 0 0 0 0 0 0 0 0 0 0 0 0
0 0 0 0 0 0 0 0 0 0 0 0 0 0 0 0 0 0 0 0 0 0 0 0 0 0 0 0 0 0 0 0 0 0 0 0 0 0
0 0 0 0 0 0 0 0 0 0 0 0 0 0 0 0 0 0 0 0 0 0 0 0 0 0 0 0 0 0 0 0 0 0 0 0 0 0
0 0 0 0 0 0 0 0 0 0 0 0 0 0 0 0 0 0 0 0 0 0 0 0 0 0 0 0 0 0 0 0 0 0 0 0 0 0
0 0 0 0 0 0 0 0 0 0 0 0 0 0 0 0 0 0 0 0 0 0 0 0 0 0 0 0 0 0 0 0 0 0 0 0 0 0
0 0 0 0 0 0 0 0 0 0 0 0 0 0 0 0 0 0 0 0 0 0 0 0 0 0 0 0 0 0 0 0 0 0 0 0 0 0
0 0 0 0 0 0 0 0 0 0 0 0 0 0 0 0 0 0 0 0 0 0 0 0 0 0 0 0 0 0 0 0 0 0 0 0 0 0
0 0 0 0 0 0 0 0 0 0 0 0 0 0 0 0 0 0 0 0 0 0 0 0 0 0 0 0 0 0 0 0 0 0 0 0 0 0
0 0 0 0 0 0 0 0 0 0 0 0 0 0 0 0 0 0 0 0 0 0 0 0 0 0 0 0 0 0 0 0 0 0 0 0 0 0
0 0 0 0 0 0 0 0 0 0 0 0 0 0 0 0 0 0 0 0 0 0 0 0 0 0 0 0 0 0 0 0 0 0 0 0 0 0
Wind_Speed
4 4 4 3 3 3 2 3 3 4 5 3 2 2 2 2 3 3 3 6 7 8 8 9 9 9 10 10 11 11 12 10 10 10 11 12 13 13
3 4 4 3 3 3 3 3 3 4 5 3 3 2 2 3 4 3 4 7 7 8 9 10 10 10 10 10 10 11 11 10 9 10 11 12 13 12
4 4 5 4 3 3 3 3 3 2 4 4 2 2 2 3 3 3 3 3 4 8 10 10 10 9 9 10 11 11 11 10 10 11 11 12 12 12
5 5 5 3 4 3 3 3 3 3 3 5 3 2 3 3 3 4 4 4 4 7 9 9 9 10 10 10 10 10 11 10 10 11 11 12 12 12
6 6 5 4 5 4 4 4 3 2 2 3 4 3 2 2 3 3 4 3 4 6 7 8 9 10 11 10 10 10 9 9 10 10 10 11 11 11
5 5 5 5 5 5 4 4 3 3 2 3 3 3 3 2 2 3 4 3 4 4 5 6 8 9 10 10 9 9 8 8 9 9 9 9 10 11
4 4 5 5 6 5 4 4 4 3 3 3 3 3 3 2 3 2 4 4 4 3 3 4 4 4 5 8 8 8 7 8 8 8 8 9 10 11
4 4 4 4 5 6 6 5 5 4 4 3 3 4 4 4 3 3 3 3 5 2 3 4 3 4 4 4 6 7 7 7 7 8 9 9 10 10
4 3 2 2 2 2 3 2 3 4 5 4 5 5 5 4 3 3 3 4 5 4 3 4 3 4 4 4 7 7 6 7 7 8 8 9 9 10
3 3 3 2 2 1 1 1 1 2 3 3 3 3 3 3 3 3 4 4 4 3 2 3 3 3 4 3 5 6 6 7 7 7 8 8 9 8
2 2 2 2 3 2 1 1 1 1 2 2 2 3 4 4 2 1 2 3 4 3 1 2 2 3 3 3 3 6 7 7 8 8 8 7 7 6
1 2 3 3 3 2 1 2 1 2 1 2 2 2 2 1 2 2 2 2 2 3 1 1 2 2 3 2 2 3 3 6 8 7 7 7 6 3
1 1 1 2 2 1 1 1 2 1 0 0 1 1 1 1 1 1 1 2 2 3 2 1 2 2 2 3 3 2 2 3 3 4 6 7 6 5
2 1 1 1 1 1 1 0 1 1 0 0 0 1 1 1 1 1 1 2 2 3 3 2 2 2 2 3 3 3 3 3 2 2 3 5 5 6
1 1 1 1 1 1 2 2 1 1 0 0 1 1 1 1 1 1 1 1 2 2 2 2 3 2 3 3 3 3 3 3 2 2 2 3 3 3
1 2 3 3 3 2 2 1 1 0 0 0 1 1 1 1 1 1 1 1 2 2 2 2 3 3 2 3 2 3 2 2 3 3 3 3 3 3
2 2 2 2 1 1 1 1 1 1 1 0 0 1 1 1 1 1 1 1 1 2 3 2 2 2 3 2 2 2 2 2 3 3 3 3 4 3
3 2 1 1 0 0 0 0 1 1 1 1 0 0 1 1 1 1 1 1 1 2 2 2 2 2 2 2 2 2 2 2 3 3 2 3 4 3
2 1 1 1 0 0 1 1 1 1 1 1 1 1 1 1 1 1 1 1 1 2 2 2 1 1 2 3 3 1 1 2 3 3 3 2 3 4
1 1 1 1 1 1 1 1 1 1 1 1 1 1 1 1 1 1 1 1 2 2 2 2 2 1 2 2 2 3 3 2 2 2 3 3 2 4
0 0 0 1 1 1 1 1 1 1 1 1 1 1 1 1 1 1 1 2 2 2 2 3 3 3 1 0 1 2 3 4 4 2 2 2 3 3
1 1 1 1 1 1 1 1 1 1 1 1 1 1 1 1 1 1 1 1 2 2 2 2 2 2 1 0 1 2 3 4 5 6 5 3 1 1
1 1 1 1 1 1 1 1 2 2 1 1 1 1 1 1 1 1 1 1 1 1 1 2 2 1 1 0 0 1 2 4 3 4 4 6 5 3
Wind_Direction
229 226 231 235 225 221 215 205 205 249 261 236 233 236 241 244 259 259 260 277 288 291 293 295 290 288 288 291 291 293 295 291 291 289 287 286 286 289
232 228 230 231 225 220 218 226 222 230 254 243 241 250 256 270 275 272 264 285 288 289 290 292 292 286 286 287 289 290 291 287 288 288 286 286 286 287
234 229 233 229 228 228 221 223 226 225 253 273 268 260 255 262 283 277 271 268 275 285 286 290 293 293 287 285 286 287 287 284 285 285 286 286 287 288
228 227 233 230 228 225 222 225 228 224 233 264 276 273 268 263 275 280 287 285 273 282 286 288 291 295 291 286 287 287 285 283 283 285 285 287 287 287
223 222 227 223 227 226 226 229 231 238 234 247 270 279 277 274 289 288 287 285 284 281 283 282 288 291 291 288 284 285 280 281 284 286 286 288 290 289
226 222 221 221 226 223 225 223 221 223 224 235 258 272 274 276 282 285 296 290 287 287 285 285 288 290 290 291 283 281 278 282 284 285 287 291 291 290
230 227 225 229 237 237 232 221 215 217 222 233 248 264 266 271 270 270 283 297 285 272 281 278 277 272 279 283 282 279 281 284 286 288 289 290 289 290
228 232 229 229 237 242 241 238 232 224 228 236 243 248 257 260 262 270 281 298 288 281 288 284 270 271 272 268 286 288 289 288 288 290 291 290 291 291
221 218 233 233 252 232 227 239 240 239 240 235 233 241 248 252 252 268 268 270 272 281 287 279 274 273 277 283 292 289 293 298 295 295 297 298 297 295
210 207 206 208 230 220 218 237 254 254 252 247 230 247 260 258 243 255 266 282 281 275 259 273 288 283 293 289 291 301 306 309 305 304 303 302 301 301
219 206 204 213 221 231 210 200 262 284 299 286 292 289 287 290 283 288 284 290 289 288 292 277 290 298 294 288 301 315 319 315 313 312 310 308 308 308
217 211 218 228 236 241 210 193 229 269 312 5 355 329 319 302 302 286 257 261 275 284 307 310 294 316 311 305 311 321 323 318 320 321 321 320 319 317
201 235 230 236 249 257 267 229 226 245 171 96 359 331 336 340 327 318 280 249 254 261 281 306 284 298 279 301 313 313 318 315 315 317 325 328 329 329
202 222 217 236 285 298 323 19 100 47 94 116 337 314 323 321 319 320 315 294 270 261 266 266 259 265 279 291 297 315 324 318 314 315 318 326 328 329
171 178 115 79 55 65 73 65 60 74 122 311 296 298 300 297 314 331 343 325 308 288 278 261 247 257 255 264 282 298 314 316 313 321 329 327 319 321
96 116 97 85 63 59 61 61 60 137 184 247 301 310 322 322 315 318 316 325 325 323 308 278 265 253 256 262 261 282 293 295 309 317 323 322 320 317
87 82 81 75 54 39 40 41 42 38 23 342 305 307 315 318 304 305 301 312 306 307 322 328 317 288 268 259 262 269 288 302 304 315 327 325 321 322
102 106 111 116 112 13 341 342 2 353 319 301 277 256 273 284 295 308 314 292 288 293 301 309 331 344 347 339 268 249 287 302 318 329 326 320 319 324
98 116 136 166 200 243 261 267 289 297 286 273 275 273 258 253 276 300 303 296 294 295 300 301 314 337 337 325 319 309 274 309 323 330 333 327 314 316
95 166 190 200 216 234 250 268 292 306 309 301 275 256 247 248 276 285 284 285 291 298 304 307 309 300 270 276 291 309 321 307 307 321 329 326 314 311
143 184 224 208 224 250 274 282 281 283 296 288 283 277 268 261 270 277 284 289 294 287 295 305 303 311 300 50 342 324 334 344 336 310 316 329 335 337
220 222 236 230 229 238 253 260 268 271 280 278 277 275 273 267 260 261 263 273 272 272 285 302 318 339 11 102 333 326 331 344 357 2 354 329 293 299
238 248 249 240 242 241 244 254 263 267 264 263 268 263 255 256 258 253 252 259 273 282 308 327 347 5 11 89 68 339 338 343 351 3 3 0 358 345